| time (UTC) | temp C | wind direction | speed KPH | gust KPH | rain 1hr cm | rain 24hr cm | rain mn cm | humidity % | barometer mb |
| 20260902191550 | 33 | 227 | 8.0 | 19.3 | 0.00 | 0.00 | 0.00 | 58 | 1014.3 |
| 20260902190049 | 33 | 261 | 8.0 | 22.5 | 0.00 | 0.00 | 0.00 | 59 | 1014.3 |
| 20260902184550 | 33 | 185 | 4.8 | 20.9 | 0.00 | 0.00 | 0.00 | 61 | 1014.4 |
| 20260902183107 | 33 | 244 | 3.2 | 16.1 | 0.00 | 0.00 | 0.00 | 59 | 1014.4 |
| 20260902181543 | 33 | 328 | 6.4 | 16.1 | 0.00 | 0.00 | 0.00 | 58 | 1014.6 |
| 20260902180042 | 32 | 177 | 8.0 | 16.1 | 0.00 | 0.00 | 0.00 | 59 | 1014.8 |
| 20260902174540 | 32 | 271 | 6.4 | 12.9 | 0.00 | 0.00 | 0.00 | 61 | 1015.0 |
| 20260902173044 | 33 | 308 | 3.2 | 12.9 | 0.00 | 0.00 | 0.00 | 61 | 1015.3 |
| 20260902171541 | 32 | 331 | 3.2 | 17.7 | 0.00 | 0.00 | 0.00 | 62 | 1015.3 |
| 20260902170046 | 32 | 234 | 3.2 | 9.7 | 0.00 | 0.00 | 0.00 | 62 | 1015.7 |
| 20260902164543 | 32 | 285 | 4.8 | 14.5 | 0.00 | 0.00 | 0.00 | 63 | 1015.7 |
| 20260902163057 | 32 | 252 | 4.8 | 11.3 | 0.00 | 0.00 | 0.00 | 63 | 1015.6 |
| 20260902161550 | 31 | 262 | 8.0 | 17.7 | 0.00 | 0.00 | 0.00 | 66 | 1015.9 |
| 20260902160039 | 31 | 297 | 4.8 | 17.7 | 0.00 | 0.00 | 0.00 | 66 | 1015.8 |
| 20260902154538 | 31 | 282 | 3.2 | 12.9 | 0.00 | 0.00 | 0.00 | 67 | 1015.8 |
| 20260902153042 | 30 | 141 | 8.0 | 17.7 | 0.00 | 0.00 | 0.00 | 69 | 1015.8 |
| 20260902151548 | 30 | 273 | 3.2 | 14.5 | 0.00 | 0.00 | 0.00 | 71 | 1015.6 |
| 20260902150043 | 29 | 219 | 4.8 | 11.3 | 0.00 | 0.00 | 0.00 | 73 | 1015.6 |
| 20260902144543 | 29 | 278 | 3.2 | 8.0 | 0.00 | 0.00 | 0.00 | 74 | 1015.7 |
| 20260902143042 | 28 | 240 | 3.2 | 11.3 | 0.00 | 0.00 | 0.00 | 75 | 1015.4 |
| 20260902141547 | 28 | 230 | 3.2 | 14.5 | 0.00 | 0.00 | 0.00 | 77 | 1015.5 |
| 20260902140047 | 28 | 220 | 3.2 | 11.3 | 0.00 | 0.00 | 0.00 | 77 | 1015.5 |
| 20260902134547 | 27 | 207 | 1.6 | 8.0 | 0.00 | 0.00 | 0.00 | 81 | 1015.5 |
| 20260902133040 | 26 | 233 | 1.6 | 9.7 | 0.00 | 0.00 | 0.00 | 83 | 1015.7 |
| 20260902131542 | 26 | 273 | 3.2 | 11.3 | 0.00 | 0.00 | 0.00 | 85 | 1015.6 |
| 20260902130041 | 25 | 248 | 0.0 | 8.0 | 0.00 | 0.00 | 0.00 | 88 | 1015.5 |
| 20260902124541 | 24 | 0 | 1.6 | 9.7 | 0.00 | 0.00 | 0.00 | 90 | 1015.6 |
| 20260902123101 | 23 | 218 | 0.0 | 4.8 | 0.00 | 0.00 | 0.00 | 93 | 1015.6 |
| 20260902121553 | 23 | 0 | 0.0 | 1.6 | 0.00 | 0.00 | 0.00 | 95 | 1015.3 |
| 20260902120044 | 22 | 0 | 0.0 | 1.6 | 0.00 | 0.00 | 0.00 | 95 | 1015.5 |
| 20260902114541 | 22 | 0 | 0.0 | 1.6 | 0.00 | 0.00 | 0.00 | 94 | 1015.4 |
| 20260902113040 | 22 | 0 | 0.0 | 3.2 | 0.00 | 0.00 | 0.00 | 94 | 1015.5 |
| 20260902111546 | 23 | 200 | 0.0 | 1.6 | 0.00 | 0.00 | 0.00 | 94 | 1015.3 |
| 20260902110042 | 23 | 0 | 0.0 | 3.2 | 0.00 | 0.00 | 0.00 | 94 | 1015.9 |
| 20260902104542 | 23 | 255 | 1.6 | 8.0 | 0.00 | 0.00 | 0.00 | 95 | 1015.6 |
| 20260902103043 | 22 | 0 | 0.0 | 1.6 | 0.00 | 0.00 | 0.00 | 95 | 1015.6 |
| 20260902101538 | 22 | 0 | 0.0 | 1.6 | 0.00 | 0.00 | 0.00 | 95 | 1015.3 |
| 20260902100038 | 23 | 0 | 0.0 | 3.2 | 0.00 | 0.00 | 0.00 | 95 | 1015.1 |
| 20260902094541 | 22 | 0 | 0.0 | 1.6 | 0.00 | 0.00 | 0.00 | 95 | 1015.0 |
| 20260902093040 | 22 | 0 | 0.0 | 0.0 | 0.00 | 0.00 | 0.00 | 94 | 1015.2 |
| 20260902091539 | 23 | 0 | 0.0 | 0.0 | 0.00 | 0.00 | 0.00 | 94 | 1015.1 |
| 20260902090040 | 23 | 0 | 0.0 | 1.6 | 0.00 | 0.00 | 0.00 | 94 | 1015.0 |
| 20260902084541 | 23 | 0 | 0.0 | 3.2 | 0.00 | 0.00 | 0.00 | 94 | 1014.9 |
| 20260902083038 | 23 | 257 | 1.6 | 4.8 | 0.00 | 0.00 | 0.00 | 94 | 1014.9 |
| 20260902081542 | 23 | 229 | 0.0 | 1.6 | 0.00 | 0.00 | 0.00 | 95 | 1014.9 |
| 20260902080040 | 23 | 0 | 0.0 | 3.2 | 0.00 | 0.00 | 0.00 | 95 | 1015.0 |
| 20260902074542 | 23 | 240 | 0.0 | 1.6 | 0.00 | 0.00 | 0.00 | 94 | 1014.8 |
| 20260902073040 | 23 | 0 | 0.0 | 3.2 | 0.00 | 0.00 | 0.00 | 95 | 1014.9 |
| 20260902071541 | 23 | 0 | 0.0 | 1.6 | 0.00 | 0.00 | 0.00 | 94 | 1014.7 |
| 20260902070042 | 23 | 0 | 0.0 | 1.6 | 0.00 | 0.00 | 0.00 | 95 | 1014.7 |
| 20260902064537 | 23 | 221 | 0.0 | 6.4 | 0.00 | 0.00 | 0.00 | 95 | 1014.6 |
| 20260902063052 | 23 | 0 | 0.0 | 3.2 | 0.00 | 0.00 | 0.00 | 95 | 1014.6 |
| 20260902061539 | 22 | 0 | 0.0 | 0.0 | 0.00 | 0.00 | 0.00 | 95 | 1014.8 |
| 20260902060041 | 22 | 0 | 0.0 | 0.0 | 0.00 | 0.00 | 0.00 | 95 | 1015.0 |
| 20260902054545 | 22 | 0 | 0.0 | 0.0 | 0.00 | 0.00 | 0.00 | 94 | 1015.2 |
| 20260902053043 | 22 | 0 | 0.0 | 0.0 | 0.00 | 0.00 | 0.00 | 94 | 1015.3 |
| 20260902051545 | 22 | 0 | 0.0 | 0.0 | 0.00 | 0.00 | 0.00 | 94 | 1015.2 |
| 20260902050057 | 22 | 0 | 0.0 | 0.0 | 0.00 | 0.00 | 0.00 | 94 | 1015.3 |
| 20260902044539 | 22 | 0 | 0.0 | 0.0 | 0.00 | 0.00 | 0.00 | 93 | 1015.5 |
| 20260902043044 | 22 | 0 | 0.0 | 0.0 | 0.00 | 0.00 | 0.00 | 93 | 1015.4 |
| 20260902041540 | 22 | 0 | 0.0 | 0.0 | 0.00 | 0.00 | 0.00 | 93 | 1015.4 |
| 20260902040042 | 22 | 0 | 0.0 | 1.6 | 0.00 | 0.00 | 0.00 | 93 | 1015.3 |
| 20260902034541 | 22 | 0 | 0.0 | 0.0 | 0.00 | 0.00 | 0.00 | 93 | 1015.3 |
| 20260902033037 | 22 | 0 | 0.0 | 0.0 | 0.00 | 0.00 | 0.00 | 93 | 1015.4 |
| 20260902031541 | 22 | 230 | 0.0 | 0.0 | 0.00 | 0.00 | 0.00 | 92 | 1015.0 |
| 20260902030039 | 22 | 0 | 0.0 | 0.0 | 0.00 | 0.00 | 0.00 | 91 | 1015.0 |
| 20260902024555 | 23 | 0 | 0.0 | 0.0 | 0.00 | 0.00 | 0.00 | 91 | 1015.0 |
| 20260902023042 | 23 | 0 | 0.0 | 0.0 | 0.00 | 0.00 | 0.00 | 90 | 1014.8 |
| 20260902021539 | 23 | 0 | 0.0 | 0.0 | 0.00 | 0.00 | 0.00 | 90 | 1014.7 |
| 20260902020053 | 23 | 0 | 0.0 | 0.0 | 0.00 | 0.00 | 0.00 | 90 | 1014.9 |
| 20260902014546 | 23 | 0 | 0.0 | 0.0 | 0.00 | 0.00 | 0.00 | 89 | 1015.1 |
| 20260902013043 | 24 | 0 | 0.0 | 0.0 | 0.00 | 0.00 | 0.00 | 88 | 1015.2 |
| 20260902011541 | 24 | 0 | 0.0 | 0.0 | 0.00 | 0.00 | 0.00 | 87 | 1015.3 |
| 20260902010046 | 25 | 0 | 0.0 | 4.8 | 0.00 | 0.00 | 0.00 | 86 | 1015.2 |
| 20260902004548 | 25 | 0 | 0.0 | 1.6 | 0.00 | 0.00 | 0.00 | 85 | 1015.1 |
| 20260902003044 | 25 | 0 | 0.0 | 0.0 | 0.00 | 0.00 | 0.00 | 83 | 1014.9 |
| 20260902001545 | 26 | 0 | 0.0 | 4.8 | 0.00 | 0.00 | 0.00 | 80 | 1014.6 |
| 20260902000044 | 26 | 252 | 0.0 | 8.0 | 0.00 | 0.00 | 0.00 | 79 | 1014.9 |
| 20260901234553 | 27 | 259 | 3.2 | 14.5 | 0.00 | 0.00 | 0.00 | 77 | 1015.0 |
| 20260901233043 | 27 | 291 | 4.8 | 9.7 | 0.00 | 0.00 | 0.00 | 76 | 1015.1 |
| 20260901231540 | 28 | 244 | 1.6 | 14.5 | 0.00 | 0.00 | 0.00 | 74 | 1015.1 |
| 20260901224541 | 29 | 276 | 6.4 | 22.5 | 0.00 | 0.05 | 0.00 | 71 | 1015.0 |
| 20260901223101 | 30 | 240 | 6.4 | 19.3 | 0.00 | 0.05 | 0.00 | 71 | 1014.7 |
| 20260901221542 | 30 | 295 | 6.4 | 16.1 | 0.00 | 0.05 | 0.00 | 72 | 1014.6 |
| 20260901220106 | 30 | 191 | 8.0 | 17.7 | 0.00 | 0.05 | 0.00 | 71 | 1014.5 |
| 20260901214542 | 31 | 281 | 3.2 | 12.9 | 0.00 | 0.18 | 0.00 | 70 | 1014.4 |
| 20260901213050 | 31 | 236 | 6.4 | 16.1 | 0.00 | 0.18 | 0.00 | 69 | 1014.2 |
| 20260901211540 | 31 | 194 | 4.8 | 12.9 | 0.00 | 0.18 | 0.00 | 71 | 1014.2 |
| 20260901210040 | 31 | 206 | 4.8 | 16.1 | 0.00 | 0.18 | 0.00 | 71 | 1014.4 |
| 20260901204546 | 31 | 257 | 8.0 | 20.9 | 0.00 | 0.41 | 0.00 | 71 | 1014.6 |
| 20260901203044 | 31 | 222 | 6.4 | 16.1 | 0.00 | 0.41 | 0.00 | 72 | 1014.7 |
| 20260901201550 | 31 | 253 | 9.7 | 20.9 | 0.00 | 0.41 | 0.00 | 71 | 1014.6 |
| 20260901200047 | 31 | 237 | 4.8 | 16.1 | 0.00 | 0.41 | 0.00 | 72 | 1014.7 |
| 20260901194547 | 31 | 251 | 9.7 | 17.7 | 0.00 | 0.41 | 0.00 | 70 | 1014.9 |
| 20260901193042 | 31 | 255 | 8.0 | 20.9 | 0.00 | 0.41 | 0.00 | 70 | 1014.9 |